• In Belgium
  • List of Countries
  • For 7 days
  • Water Temperature
  • Satellite Maps
  • Weather Map
  • Weather Widgets
  • user-avatar
    Login

    Hourly Weather Korfu

    Today, 13 December, Wednesday

    Time Temperature Precipitation Wind Pressure Humidity
    00:00 +12°C° 0 mm 5 mps 763 mmHg 90%
    01:00 +12°C° 0 mm 5 mps 763 mmHg 90%
    02:00 +12°C° 0 mm 5 mps 763 mmHg 91%
    03:00 +12°C° 0 mm 5 mps 763 mmHg 92%
    04:00 +10°C° 0 mm 5 mps 763 mmHg 92%
    05:00 +10°C° 0 mm 5 mps 763 mmHg 92%
    06:00 +10°C° 0 mm 5 mps 763 mmHg 93%
    07:00 +10°C° 0 mm 5 mps 763 mmHg 93%
    08:00 +12°C° 0 mm 5 mps 763 mmHg 90%
    09:00 +14°C° 0 mm 5 mps 763 mmHg 88%
    10:00 +15°C° 0 mm 5 mps 763 mmHg 85%
    11:00 +15°C° 0 mm 5 mps 763 mmHg 83%
    12:00 +15°C° 0 mm 5 mps 762 mmHg 81%
    13:00 +16°C° 0 mm 6 mps 762 mmHg 80%
    14:00 +15°C° 0.1 mm 5 mps 762 mmHg 83%
    15:00 +14°C° 0.1 mm 5 mps 761 mmHg 87%
    16:00 +14°C° 0.1 mm 5 mps 761 mmHg 91%
    17:00 +13°C° 0.1 mm 5 mps 761 mmHg 92%
    18:00 +13°C° 0.1 mm 6 mps 761 mmHg 93%
    19:00 +13°C° 0.1 mm 6 mps 761 mmHg 94%
    20:00 +13°C° 0.5 mm 6 mps 761 mmHg 94%
    21:00 +13°C° 0.5 mm 5 mps 761 mmHg 94%
    22:00 +13°C° 0.5 mm 5 mps 761 mmHg 94%
    23:00 +13°C° 0.7 mm 4 mps 761 mmHg 94%

    Tomorrow, 14 December, Thursday

    Time Temperature Precipitation Wind Pressure Humidity
    00:00 +13°C° 0.7 mm 3 mps 760 mmHg 95%
    01:00 +12°C° 0.7 mm 3 mps 760 mmHg 95%
    02:00 +12°C° 0.3 mm 3 mps 760 mmHg 95%
    03:00 +12°C° 0.3 mm 3 mps 760 mmHg 94%
    04:00 +12°C° 0.3 mm 4 mps 759 mmHg 93%
    05:00 +12°C° 0 mm 4 mps 760 mmHg 92%
    06:00 +11°C° 0 mm 4 mps 760 mmHg 92%
    07:00 +10°C° 0 mm 5 mps 760 mmHg 91%
    08:00 +12°C° 0 mm 5 mps 760 mmHg 87%
    09:00 +12°C° 0 mm 4 mps 761 mmHg 82%
    10:00 +13°C° 0 mm 4 mps 761 mmHg 77%
    11:00 +13°C° 0 mm 3 mps 761 mmHg 72%
    12:00 +14°C° 0 mm 3 mps 760 mmHg 68%
    13:00 +14°C° 0 mm 3 mps 760 mmHg 63%
    14:00 +14°C° 0 mm 2 mps 760 mmHg 66%
    15:00 +13°C° 0 mm 2 mps 760 mmHg 69%
    16:00 +13°C° 0 mm 2 mps 760 mmHg 71%
    17:00 +12°C° 0 mm 2 mps 760 mmHg 73%
    18:00 +12°C° 0 mm 2 mps 760 mmHg 75%
    19:00 +10°C° 0 mm 2 mps 761 mmHg 76%
    20:00 +10°C° 0 mm 2 mps 761 mmHg 77%
    21:00 +9°C° 0 mm 2 mps 761 mmHg 79%
    22:00 +9°C° 0 mm 3 mps 761 mmHg 80%
    23:00 +9°C° 0 mm 3 mps 760 mmHg 80%

    Day after tomorrow, 15 December, Friday

    Time Temperature Precipitation Wind Pressure Humidity
    00:00 +8°C° 0 mm 4 mps 760 mmHg 80%
    01:00 +8°C° 0 mm 4 mps 760 mmHg 80%
    02:00 +8°C° 0 mm 4 mps 760 mmHg 80%
    03:00 +7°C° 0 mm 4 mps 760 mmHg 79%
    04:00 +7°C° 0 mm 5 mps 759 mmHg 79%
    05:00 +7°C° 0 mm 5 mps 759 mmHg 80%
    06:00 +7°C° 0 mm 5 mps 759 mmHg 82%
    07:00 +7°C° 0 mm 5 mps 759 mmHg 84%
    08:00 +9°C° 0 mm 6 mps 759 mmHg 83%
    09:00 +10°C° 0 mm 6 mps 759 mmHg 83%
    10:00 +12°C° 0 mm 7 mps 759 mmHg 83%
    11:00 +12°C° 0 mm 7 mps 758 mmHg 84%
    12:00 +12°C° 0 mm 7 mps 758 mmHg 85%
    13:00 +12°C° 0 mm 7 mps 757 mmHg 86%
    14:00 +12°C° 0.1 mm 7 mps 757 mmHg 88%
    15:00 +11°C° 0.1 mm 7 mps 757 mmHg 90%
    16:00 +11°C° 0.1 mm 7 mps 757 mmHg 92%
    17:00 +11°C° 0.1 mm 7 mps 757 mmHg 92%
    18:00 +11°C° 0.1 mm 7 mps 757 mmHg 93%
    19:00 +11°C° 0.1 mm 7 mps 757 mmHg 93%
    20:00 +11°C° 0.3 mm 7 mps 757 mmHg 94%
    21:00 +11°C° 0.3 mm 7 mps 757 mmHg 94%
    22:00 +11°C° 0.3 mm 7 mps 757 mmHg 94%
    23:00 +11°C° 0.2 mm 7 mps 757 mmHg 95%

    16 December, Saturday

    Time Temperature Precipitation Wind Pressure Humidity
    00:00 +11°C° 0.2 mm 7 mps 757 mmHg 95%
    01:00 +11°C° 0.2 mm 6 mps 757 mmHg 95%
    02:00 +13°C° 0.1 mm 6 mps 756 mmHg 95%
    03:00 +13°C° 0.1 mm 6 mps 756 mmHg 96%
    04:00 +13°C° 0.1 mm 6 mps 755 mmHg 96%
    05:00 +13°C° 0.1 mm 6 mps 755 mmHg 96%
    06:00 +13°C° 0.1 mm 6 mps 755 mmHg 96%
    07:00 +13°C° 0.1 mm 6 mps 755 mmHg 97%
    08:00 +14°C° 0.1 mm 6 mps 755 mmHg 95%
    09:00 +14°C° 0.1 mm 6 mps 755 mmHg 94%
    10:00 +15°C° 0.1 mm 6 mps 755 mmHg 93%
    11:00 +15°C° 0.3 mm 6 mps 755 mmHg 91%
    12:00 +15°C° 0.3 mm 7 mps 754 mmHg 90%
    13:00 +14°C° 0.3 mm 7 mps 754 mmHg 88%
    14:00 +14°C° 0.9 mm 6 mps 754 mmHg 90%
    15:00 +13°C° 0.9 mm 5 mps 754 mmHg 92%
    16:00 +13°C° 0.9 mm 4 mps 754 mmHg 93%
    17:00 +13°C° 2.2 mm 4 mps 754 mmHg 94%
    18:00 +12°C° 2.2 mm 4 mps 754 mmHg 94%
    19:00 +12°C° 2.2 mm 3 mps 754 mmHg 95%
    20:00 +12°C° 3.8 mm 3 mps 753 mmHg 94%
    21:00 +11°C° 3.8 mm 4 mps 753 mmHg 94%
    22:00 +11°C° 3.8 mm 4 mps 753 mmHg 93%
    23:00 +11°C° 3.9 mm 4 mps 753 mmHg 93%

    17 December, Sunday

    Time Temperature Precipitation Wind Pressure Humidity
    00:00 +11°C° 3.9 mm 3 mps 752 mmHg 93%
    01:00 +11°C° 3.9 mm 3 mps 752 mmHg 93%
    02:00 +11°C° 1.5 mm 3 mps 752 mmHg 93%
    03:00 +11°C° 1.5 mm 4 mps 752 mmHg 92%
    04:00 +11°C° 1.5 mm 4 mps 752 mmHg 91%
    05:00 +11°C° 0.1 mm 4 mps 752 mmHg 91%
    06:00 +10°C° 0.1 mm 5 mps 753 mmHg 90%
    07:00 +10°C° 0.1 mm 5 mps 753 mmHg 90%
    08:00 +12°C° 0 mm 5 mps 754 mmHg 86%
    09:00 +13°C° 0 mm 5 mps 754 mmHg 83%
    10:00 +13°C° 0 mm 5 mps 754 mmHg 80%
    11:00 +14°C° 0 mm 6 mps 754 mmHg 78%
    12:00 +14°C° 0 mm 6 mps 755 mmHg 76%
    13:00 +15°C° 0 mm 6 mps 755 mmHg 75%
    14:00 +14°C° 0 mm 6 mps 755 mmHg 78%
    15:00 +13°C° 0 mm 6 mps 756 mmHg 82%
    16:00 +11°C° 0 mm 6 mps 756 mmHg 85%
    17:00 +11°C° 0 mm 6 mps 756 mmHg 86%
    18:00 +10°C° 0 mm 5 mps 757 mmHg 88%
    19:00 +10°C° 0 mm 5 mps 757 mmHg 89%
    20:00 +10°C° 0 mm 4 mps 758 mmHg 89%
    21:00 +10°C° 0 mm 4 mps 758 mmHg 88%
    22:00 +9°C° 0 mm 3 mps 759 mmHg 88%
    23:00 +9°C° 0 mm 3 mps 759 mmHg 88%

    18 December, Monday

    Time Temperature Precipitation Wind Pressure Humidity
    00:00 +9°C° 0 mm 3 mps 759 mmHg 88%
    01:00 +8°C° 0 mm 3 mps 759 mmHg 88%
    02:00 +8°C° 0 mm 2 mps 759 mmHg 88%
    03:00 +8°C° 0 mm 2 mps 760 mmHg 88%
    04:00 +8°C° 0 mm 2 mps 760 mmHg 88%
    05:00 +8°C° 0.2 mm 2 mps 760 mmHg 88%
    06:00 +8°C° 0.2 mm 2 mps 760 mmHg 88%
    07:00 +8°C° 0.2 mm 2 mps 761 mmHg 88%
    08:00 +9°C° 0.1 mm 2 mps 761 mmHg 83%
    09:00 +10°C° 0.1 mm 2 mps 761 mmHg 79%
    10:00 +12°C° 0.1 mm 2 mps 761 mmHg 74%
    11:00 +12°C° 0.1 mm 2 mps 761 mmHg 70%
    12:00 +13°C° 0.1 mm 1 mps 761 mmHg 65%
    13:00 +13°C° 0.1 mm 1 mps 761 mmHg 61%
    14:00 +12°C° 0.3 mm 1 mps 761 mmHg 66%
    15:00 +12°C° 0.3 mm 1 mps 761 mmHg 71%
    16:00 +11°C° 0.3 mm 1 mps 761 mmHg 76%
    17:00 +10°C° 0.3 mm 2 mps 761 mmHg 77%
    18:00 +10°C° 0.3 mm 2 mps 761 mmHg 78%
    19:00 +9°C° 0.3 mm 2 mps 761 mmHg 79%
    20:00 +9°C° 0.4 mm 3 mps 762 mmHg 80%
    21:00 +9°C° 0.4 mm 3 mps 762 mmHg 80%
    22:00 +9°C° 0.4 mm 3 mps 762 mmHg 81%
    23:00 +7°C° 0.5 mm 4 mps 762 mmHg 81%
    Show more